This is the latest recevied weather packets stored in our database for station/object AC4AG. If no packets are shown the sender has not sent any weather packets the latest 10 day(s).
| Time | Temp. | Humidity | Pressure | Rain* | Wind** | Luminosity | Snow |
|---|---|---|---|---|---|---|---|
| 1777584233 | 15.56° C | 48% | 1014.1 hPa | 0 mm | - | 497 W/m² | - |
| 1777583933 | 15.56° C | 49% | 1014.1 hPa | 0 mm | - | 508 W/m² | - |
| 1777583629 | 15.56° C | 47% | 1014.3 hPa | 0 mm | - | 526 W/m² | - |
| 1777583327 | 15.56° C | 47% | 1014.2 hPa | 0 mm | - | 550 W/m² | - |
| 1777583023 | 15.56° C | 47% | 1014.3 hPa | 0 mm | - | 562 W/m² | - |
| 1777582720 | 15.56° C | 49% | 1014.3 hPa | 0 mm | - | 577 W/m² | - |
| 1777582415 | 15° C | 48% | 1014.3 hPa | 0 mm | - | 603 W/m² | - |
| 1777582114 | 15° C | 46% | 1014.4 hPa | 0 mm | - | 616 W/m² | - |
| 1777581809 | 15° C | 48% | 1014.4 hPa | 0 mm | - | 632 W/m² | - |
| 1777581507 | 15° C | 48% | 1014.5 hPa | 0 mm | - | 642 W/m² | - |
| 1777581203 | 15° C | 49% | 1014.5 hPa | 0 mm | - | 658 W/m² | - |
| 1777580898 | 15.56° C | 50% | 1014.7 hPa | 0 mm | - | 677 W/m² | - |
| 1777580598 | 15.56° C | 47% | 1014.6 hPa | 0 mm | - | 683 W/m² | - |
| 1777580294 | 15.56° C | 48% | 1014.9 hPa | 0 mm | - | 703 W/m² | - |
| 1777579991 | 15° C | 48% | 1014.8 hPa | 0 mm | - | 719 W/m² | - |
| 1777579686 | 15° C | 48% | 1015.1 hPa | 0 mm | - | 731 W/m² | - |
| 1777579385 | 15° C | 48% | 1015.1 hPa | 0 mm | - | 742 W/m² | - |
| 1777579080 | 15.56° C | 45% | 1015.1 hPa | 0 mm | - | 753 W/m² | - |
| 1777578776 | 15° C | 49% | 1015.2 hPa | 0 mm | - | 767 W/m² | - |
| 1777578476 | 15° C | 47% | 1015.1 hPa | 0 mm | - | 778 W/m² | - |
| 1777578171 | 15.56° C | 46% | 1015.2 hPa | 0 mm | - | 795 W/m² | - |
| 1777577867 | 15° C | 48% | 1015.2 hPa | 0 mm | - | 801 W/m² | - |
| 1777577563 | 15° C | 49% | 1015.2 hPa | 0 mm | - | 766 W/m² | - |
| 1777577260 | 15° C | 48% | 1015.2 hPa | 0 mm | - | 822 W/m² | - |
| 1777576956 | 15° C | 49% | 1015.4 hPa | 0 mm | - | 830 W/m² | - |
* Rain latest hour (hover to see other rain measurements)
** Current wind speed in m/s (hover to see current wind gust speed)